Weather in South Lake Tahoe

United States     38°56′03″N   119°58′36″W
temp.,
°C
wind,
m/s
gust,
m/s
humid.,
%
clouds,
%
prec.,
mm/h
press.,
hPa
HPBL,
m
18 may, tue
tue1823:00+9wsw33595 0.0 101632
02:00+7sw33670 0.0 101826
05:00+6sw33463 0.0 101822
08:00+6wsw33512 0.0 101922
11:00+9sw23510 0.0 1018245
14:00+14wsw68311 0.0 1015870
17:00+14wsw912300 0.0 1014831
20:00+13wsw1013350 0.0 1014728
19 may, wed
wed1923:00+8wsw33510 0.0 101545
02:00+5sw32590 0.0 101633
05:00+5sw33580 0.0 101439
08:00+4sw33580 0.0 101340
11:00+9wsw37380 0.0 1011470
14:00+12wsw1015350 0.0 1008952
17:00+12wsw1318370 0.0 1007978
20:00+9sw1318440 0.0 1006916
20 may, thu
thu2023:00+5sw613580 0.0 1008689
02:00+3sw512620 0.0 1008583
05:00+3sw715360 0.0 1007819
08:00−1wsw510460 0.0 1012529
11:000wsw711370 0.0 10121333
14:00+2wsw89311 0.0 10111923
17:00+2w974754 0.1 10111762
20:000nw2387100 3.8 1013564
21 may, fri
fri2123:00−1nnw3674100 5.4 1014665
02:00−3nw3578100 5.8 1016303
05:00−2w1180100 0.0 1016187
08:00−4wnw228327 0.0 1017177
11:00−1nw227439 0.0 1015407
14:00+1nnw245868 0.2 1014938
17:00+1wsw338494 2.2 1015532
20:00+1sw448282 6.4 1014506
22 may, sat
sat2223:00−1sw1295100 4.0 1016233
02:00−1ssw2189100 5.4 1018129
05:00−3sw218548 0.0 101840
08:00−2sw3381100 0.0 101861
11:00+1wsw2377100 0.0 1016276
14:00+2wsw3475100 0.6 1016935
17:00+2w2392100 1.2 1016452
20:00+2w239268 2.8 1016419